| time (UTC) | temp C | wind direction | speed KPH | gust KPH | rain 1hr cm | rain 24hr cm | rain mn cm | humidity % | barometer mb |
| 20260906114015 | 21 | 221 | 0.0 | 0.0 | 0.00 | 0.97 | 0.00 | 94 | 1013.6 |
| 20260906113512 | 21 | 221 | 0.0 | 0.0 | 0.00 | 0.97 | 0.00 | 94 | 1013.6 |
| 20260906113034 | 21 | 221 | 0.0 | 0.0 | 0.00 | 0.97 | 0.00 | 94 | 1013.6 |
| 20260906112516 | 21 | 221 | 0.0 | 0.0 | 0.00 | 0.97 | 0.00 | 94 | 1013.6 |
| 20260906112017 | 21 | 221 | 0.0 | 0.0 | 0.00 | 0.97 | 0.00 | 93 | 1013.6 |
| 20260906111533 | 22 | 221 | 0.0 | 0.0 | 0.00 | 0.97 | 0.00 | 93 | 1013.5 |
| 20260906111018 | 22 | 221 | 0.0 | 0.0 | 0.00 | 0.97 | 0.00 | 93 | 1013.4 |
| 20260906110517 | 22 | 221 | 0.0 | 3.2 | 0.00 | 0.97 | 0.00 | 93 | 1013.5 |
| 20260906110031 | 22 | 221 | 0.0 | 3.2 | 0.00 | 0.97 | 0.00 | 93 | 1013.5 |
| 20260906105510 | 22 | 256 | 0.0 | 3.2 | 0.00 | 0.97 | 0.00 | 93 | 1013.3 |
| 20260906105010 | 22 | 256 | 0.0 | 3.2 | 0.00 | 0.97 | 0.00 | 92 | 1013.3 |
| 20260906104527 | 22 | 256 | 0.0 | 3.2 | 0.00 | 0.97 | 0.00 | 93 | 1013.3 |
| 20260906104012 | 22 | 256 | 0.0 | 3.2 | 0.00 | 0.97 | 0.00 | 92 | 1013.2 |
| 20260906103512 | 22 | 250 | 0.0 | 3.2 | 0.00 | 0.97 | 0.00 | 92 | 1013.2 |
| 20260906103042 | 22 | 258 | 1.6 | 4.8 | 0.00 | 0.97 | 0.00 | 92 | 1013.0 |
| 20260906102516 | 22 | 231 | 3.2 | 8.0 | 0.00 | 0.97 | 0.00 | 93 | 1013.0 |
| 20260906102015 | 22 | 252 | 3.2 | 8.0 | 0.00 | 0.97 | 0.00 | 93 | 1013.0 |
| 20260906101533 | 22 | 240 | 3.2 | 4.8 | 0.00 | 0.97 | 0.00 | 93 | 1013.1 |
| 20260906101019 | 22 | 251 | 1.6 | 4.8 | 0.00 | 0.97 | 0.00 | 94 | 1013.1 |
| 20260906100518 | 22 | 211 | 1.6 | 4.8 | 0.00 | 0.97 | 0.00 | 94 | 1013.1 |
| 20260906100035 | 22 | 247 | 1.6 | 3.2 | 0.00 | 0.97 | 0.00 | 94 | 1013.2 |
| 20260906095518 | 22 | 242 | 0.0 | 3.2 | 0.00 | 0.97 | 0.00 | 94 | 1013.2 |
| 20260906095009 | 22 | 242 | 0.0 | 6.4 | 0.00 | 0.97 | 0.00 | 94 | 1013.2 |
| 20260906094532 | 22 | 254 | 1.6 | 6.4 | 0.00 | 0.97 | 0.00 | 94 | 1013.1 |
| 20260906094011 | 22 | 233 | 4.8 | 6.4 | 0.00 | 0.97 | 0.00 | 94 | 1013.2 |
| 20260906093505 | 22 | 78 | 0.0 | 3.2 | 0.00 | 0.97 | 0.00 | 95 | 1013.3 |
| 20260906093004 | 22 | 112 | 1.6 | 3.2 | 0.00 | 0.97 | 0.00 | 95 | 1013.3 |
| 20260906092504 | 22 | 150 | 0.0 | 4.8 | 0.00 | 0.97 | 0.00 | 94 | 1012.9 |
| 20260906092005 | 22 | 165 | 1.6 | 4.8 | 0.00 | 0.97 | 0.00 | 94 | 1012.9 |
| 20260906091510 | 22 | 167 | 1.6 | 3.2 | 0.00 | 0.97 | 0.00 | 94 | 1013.0 |
| 20260906091003 | 22 | 218 | 1.6 | 3.2 | 0.00 | 0.97 | 0.00 | 94 | 1013.1 |
| 20260906090504 | 22 | 252 | 0.0 | 0.0 | 0.00 | 0.97 | 0.00 | 94 | 1013.2 |
| 20260906090012 | 22 | 252 | 0.0 | 3.2 | 0.00 | 0.97 | 0.00 | 94 | 1013.3 |
| 20260906085507 | 22 | 252 | 0.0 | 3.2 | 0.00 | 0.97 | 0.00 | 94 | 1013.4 |
| 20260906085009 | 22 | 265 | 0.0 | 1.6 | 0.00 | 0.97 | 0.00 | 94 | 1013.5 |
| 20260906084523 | 22 | 8 | 0.0 | 0.0 | 0.00 | 0.97 | 0.00 | 94 | 1013.5 |
| 20260906084014 | 22 | 8 | 0.0 | 0.0 | 0.00 | 0.97 | 0.00 | 94 | 1013.5 |
| 20260906083512 | 22 | 8 | 0.0 | 0.0 | 0.00 | 0.97 | 0.00 | 94 | 1013.6 |
| 20260906083034 | 22 | 8 | 0.0 | 3.2 | 0.00 | 0.97 | 0.00 | 94 | 1013.6 |
| 20260906082508 | 22 | 8 | 0.0 | 3.2 | 0.00 | 0.97 | 0.00 | 94 | 1013.7 |
| 20260906082003 | 22 | 8 | 0.0 | 3.2 | 0.00 | 0.97 | 0.00 | 94 | 1013.7 |
| 20260906081513 | 22 | 8 | 0.0 | 3.2 | 0.00 | 0.97 | 0.00 | 94 | 1013.7 |
| 20260906081004 | 22 | 8 | 0.0 | 3.2 | 0.00 | 0.97 | 0.00 | 94 | 1013.7 |
| 20260906080504 | 22 | 8 | 0.0 | 3.2 | 0.00 | 0.97 | 0.00 | 94 | 1013.7 |
| 20260906080029 | 22 | 8 | 0.0 | 3.2 | 0.00 | 0.97 | 0.00 | 94 | 1013.6 |
| 20260906075504 | 22 | 8 | 0.0 | 3.2 | 0.00 | 0.97 | 0.00 | 94 | 1013.4 |
| 20260906075007 | 22 | 8 | 0.0 | 1.6 | 0.00 | 0.97 | 0.00 | 95 | 1013.3 |
| 20260906074518 | 22 | 8 | 0.0 | 3.2 | 0.00 | 0.97 | 0.00 | 95 | 1013.3 |
| 20260906074007 | 22 | 8 | 0.0 | 3.2 | 0.00 | 0.97 | 0.00 | 95 | 1013.4 |
| 20260906073512 | 22 | 73 | 0.0 | 3.2 | 0.00 | 0.97 | 0.00 | 95 | 1013.3 |
| 20260906073026 | 22 | 339 | 0.0 | 3.2 | 0.00 | 0.97 | 0.00 | 95 | 1013.4 |
| 20260906072515 | 22 | 329 | 1.6 | 3.2 | 0.00 | 0.97 | 0.00 | 94 | 1013.3 |
| 20260906072013 | 22 | 270 | 0.0 | 3.2 | 0.00 | 0.97 | 0.00 | 94 | 1012.8 |
| 20260906071529 | 22 | 215 | 0.0 | 3.2 | 0.00 | 0.97 | 0.00 | 94 | 1012.8 |
| 20260906071003 | 22 | 215 | 0.0 | 3.2 | 0.00 | 0.97 | 0.00 | 94 | 1012.7 |
| 20260906070503 | 22 | 215 | 0.0 | 3.2 | 0.00 | 0.97 | 0.00 | 94 | 1012.7 |
| 20260906070008 | 22 | 215 | 0.0 | 3.2 | 0.00 | 0.97 | 0.00 | 94 | 1012.7 |
| 20260906065508 | 22 | 215 | 0.0 | 3.2 | 0.00 | 0.97 | 0.00 | 94 | 1012.8 |
| 20260906065004 | 22 | 215 | 0.0 | 3.2 | 0.00 | 0.97 | 0.00 | 95 | 1013.0 |
| 20260906064519 | 22 | 215 | 0.0 | 3.2 | 0.00 | 0.97 | 0.00 | 95 | 1013.2 |
| 20260906064008 | 22 | 215 | 0.0 | 1.6 | 0.00 | 0.97 | 0.00 | 95 | 1013.4 |
| 20260906063512 | 22 | 219 | 0.0 | 3.2 | 0.00 | 0.97 | 0.00 | 95 | 1013.4 |
| 20260906063027 | 22 | 211 | 0.0 | 3.2 | 0.00 | 0.97 | 0.00 | 95 | 1013.4 |
| 20260906062512 | 22 | 198 | 0.0 | 3.2 | 0.00 | 0.97 | 0.00 | 95 | 1013.3 |
| 20260906062013 | 22 | 278 | 0.0 | 3.2 | 0.00 | 0.97 | 0.00 | 95 | 1013.3 |
| 20260906061532 | 22 | 278 | 0.0 | 3.2 | 0.00 | 0.97 | 0.00 | 95 | 1013.3 |
| 20260906061013 | 22 | 278 | 1.6 | 1.6 | 0.00 | 0.97 | 0.00 | 95 | 1013.3 |
| 20260906060516 | 21 | 1 | 0.0 | 0.0 | 0.00 | 0.97 | 0.00 | 95 | 1013.2 |
| 20260906060008 | 21 | 1 | 0.0 | 0.0 | 0.00 | 0.97 | 0.00 | 95 | 1013.3 |
| 20260906055503 | 21 | 41 | 0.0 | 1.6 | 0.00 | 0.97 | 0.00 | 94 | 1013.3 |
| 20260906055004 | 21 | 31 | 0.0 | 1.6 | 0.00 | 0.97 | 0.00 | 95 | 1013.4 |
| 20260906054532 | 22 | 31 | 0.0 | 1.6 | 0.00 | 0.97 | 0.00 | 95 | 1013.5 |
| 20260906054003 | 21 | 131 | 0.0 | 0.0 | 0.00 | 0.97 | 0.00 | 95 | 1013.6 |
| 20260906053511 | 21 | 131 | 0.0 | 0.0 | 0.00 | 0.97 | 0.00 | 95 | 1013.6 |
| 20260906053024 | 21 | 131 | 0.0 | 0.0 | 0.00 | 0.97 | 0.00 | 95 | 1013.6 |
| 20260906052507 | 21 | 131 | 0.0 | 0.0 | 0.00 | 0.97 | 0.00 | 95 | 1013.6 |
| 20260906052015 | 22 | 131 | 0.0 | 0.0 | 0.00 | 0.97 | 0.00 | 95 | 1013.6 |
| 20260906051531 | 22 | 131 | 0.0 | 0.0 | 0.00 | 0.97 | 0.00 | 95 | 1013.6 |
| 20260906051015 | 21 | 131 | 0.0 | 0.0 | 0.00 | 0.97 | 0.00 | 95 | 1013.7 |
| 20260906050524 | 21 | 131 | 0.0 | 0.0 | 0.00 | 0.97 | 0.00 | 95 | 1013.7 |
| 20260906050034 | 21 | 131 | 0.0 | 1.6 | 0.00 | 0.97 | 0.00 | 94 | 1013.6 |
| 20260906045514 | 21 | 131 | 0.0 | 1.6 | 0.00 | 0.97 | 0.00 | 94 | 1013.8 |
| 20260906045003 | 22 | 120 | 0.0 | 0.0 | 0.00 | 0.97 | 0.00 | 94 | 1013.9 |
| 20260906044510 | 22 | 120 | 0.0 | 0.0 | 0.00 | 0.97 | 0.00 | 94 | 1013.9 |
| 20260906044007 | 22 | 120 | 0.0 | 0.0 | 0.00 | 0.97 | 0.00 | 95 | 1013.9 |
| 20260906043506 | 22 | 120 | 0.0 | 0.0 | 0.00 | 0.97 | 0.00 | 94 | 1014.0 |
| 20260906043023 | 22 | 120 | 0.0 | 0.0 | 0.00 | 0.97 | 0.00 | 94 | 1014.1 |
| 20260906042509 | 22 | 120 | 0.0 | 0.0 | 0.00 | 0.97 | 0.00 | 95 | 1014.0 |
| 20260906042014 | 22 | 120 | 0.0 | 3.2 | 0.00 | 0.97 | 0.00 | 95 | 1013.8 |
| 20260906041527 | 22 | 120 | 0.0 | 3.2 | 0.00 | 0.97 | 0.00 | 94 | 1013.8 |
| 20260906041022 | 22 | 120 | 0.0 | 3.2 | 0.00 | 0.97 | 0.00 | 94 | 1013.8 |
| 20260906040511 | 22 | 98 | 0.0 | 0.0 | 0.00 | 0.97 | 0.00 | 94 | 1013.8 |
| 20260906040031 | 22 | 95 | 0.0 | 0.0 | 0.00 | 0.97 | 0.00 | 94 | 1013.8 |
| 20260906035515 | 22 | 95 | 0.0 | 0.0 | 0.00 | 0.97 | 0.97 | 94 | 1013.8 |
| 20260906035014 | 22 | 156 | 0.0 | 0.0 | 0.00 | 0.97 | 0.97 | 94 | 1013.8 |
| 20260906034534 | 22 | 156 | 0.0 | 0.0 | 0.00 | 0.97 | 0.97 | 94 | 1013.8 |
| 20260906034007 | 22 | 156 | 0.0 | 0.0 | 0.00 | 0.97 | 0.97 | 94 | 1013.8 |
| 20260906033503 | 22 | 156 | 0.0 | 3.2 | 0.00 | 0.97 | 0.97 | 94 | 1013.7 |
| 20260906033015 | 22 | 122 | 0.0 | 3.2 | 0.00 | 0.97 | 0.97 | 94 | 1013.9 |
| 20260906032509 | 22 | 122 | 0.0 | 3.2 | 0.00 | 0.97 | 0.97 | 94 | 1014.0 |
| 20260906032009 | 22 | 122 | 0.0 | 3.2 | 0.00 | 0.97 | 0.97 | 93 | 1014.0 |
| 20260906031524 | 22 | 76 | 0.0 | 0.0 | 0.00 | 0.97 | 0.97 | 94 | 1013.9 |
| 20260906031013 | 22 | 76 | 0.0 | 0.0 | 0.00 | 0.97 | 0.97 | 94 | 1013.9 |
| 20260906030512 | 22 | 76 | 0.0 | 0.0 | 0.00 | 0.97 | 0.97 | 94 | 1013.9 |
| 20260906030027 | 22 | 76 | 0.0 | 0.0 | 0.00 | 0.97 | 0.97 | 94 | 1013.8 |
| 20260906025513 | 22 | 76 | 0.0 | 0.0 | 0.00 | 0.97 | 0.97 | 94 | 1013.8 |
| 20260906025015 | 22 | 76 | 0.0 | 0.0 | 0.00 | 0.97 | 0.97 | 94 | 1013.7 |
| 20260906024533 | 22 | 76 | 0.0 | 0.0 | 0.00 | 0.97 | 0.97 | 94 | 1013.6 |
| 20260906024015 | 22 | 76 | 0.0 | 0.0 | 0.00 | 0.97 | 0.97 | 94 | 1013.6 |
| 20260906023519 | 22 | 76 | 0.0 | 0.0 | 0.00 | 0.97 | 0.97 | 94 | 1013.5 |
| 20260906023011 | 22 | 76 | 0.0 | 0.0 | 0.00 | 0.97 | 0.97 | 94 | 1013.5 |
| 20260906022508 | 22 | 76 | 0.0 | 0.0 | 0.00 | 0.97 | 0.97 | 94 | 1013.5 |
| 20260906022008 | 22 | 155 | 0.0 | 0.0 | 0.00 | 0.97 | 0.97 | 94 | 1013.5 |
| 20260906021535 | 22 | 155 | 0.0 | 3.2 | 0.00 | 0.97 | 0.97 | 93 | 1013.6 |
| 20260906021016 | 22 | 155 | 0.0 | 3.2 | 0.00 | 0.97 | 0.97 | 93 | 1013.3 |
| 20260906020522 | 22 | 155 | 0.0 | 0.0 | 0.00 | 0.97 | 0.97 | 93 | 1013.3 |
| 20260906020032 | 22 | 155 | 0.0 | 0.0 | 0.00 | 0.97 | 0.97 | 94 | 1013.1 |
| 20260906015511 | 22 | 155 | 0.0 | 0.0 | 0.00 | 0.97 | 0.97 | 94 | 1013.2 |
| 20260906015014 | 22 | 155 | 0.0 | 0.0 | 0.00 | 0.97 | 0.97 | 94 | 1013.0 |
| 20260906014532 | 22 | 155 | 0.0 | 0.0 | 0.00 | 0.97 | 0.97 | 94 | 1012.8 |
| 20260906014017 | 22 | 155 | 0.0 | 1.6 | 0.00 | 0.97 | 0.97 | 94 | 1012.9 |
| 20260906013515 | 22 | 155 | 0.0 | 1.6 | 0.00 | 0.97 | 0.97 | 93 | 1012.9 |
| 20260906013040 | 22 | 155 | 0.0 | 1.6 | 0.00 | 0.97 | 0.97 | 93 | 1012.8 |
| 20260906012519 | 23 | 155 | 0.0 | 0.0 | 0.00 | 0.97 | 0.97 | 93 | 1012.7 |
| 20260906012019 | 23 | 155 | 0.0 | 0.0 | 0.00 | 0.97 | 0.97 | 93 | 1012.7 |
| 20260906011519 | 23 | 155 | 0.0 | 0.0 | 0.00 | 0.97 | 0.97 | 93 | 1012.7 |
| 20260906011009 | 23 | 155 | 0.0 | 0.0 | 0.00 | 0.97 | 0.97 | 93 | 1012.7 |
| 20260906010508 | 23 | 155 | 0.0 | 0.0 | 0.00 | 0.97 | 0.97 | 93 | 1012.8 |
| 20260906010026 | 23 | 155 | 0.0 | 0.0 | 0.00 | 0.97 | 0.97 | 93 | 1012.6 |
| 20260906005509 | 23 | 155 | 0.0 | 0.0 | 0.00 | 0.97 | 0.97 | 93 | 1012.7 |
| 20260906005015 | 23 | 155 | 0.0 | 0.0 | 0.00 | 0.97 | 0.97 | 93 | 1012.5 |
| 20260906004536 | 23 | 155 | 0.0 | 0.0 | 0.00 | 0.97 | 0.97 | 93 | 1012.6 |
| 20260906004016 | 23 | 155 | 0.0 | 0.0 | 0.00 | 0.97 | 0.97 | 92 | 1012.7 |
| 20260906003514 | 23 | 99 | 0.0 | 0.0 | 0.00 | 0.97 | 0.97 | 92 | 1012.7 |
| 20260906003033 | 23 | 99 | 0.0 | 0.0 | 0.00 | 0.97 | 0.97 | 92 | 1012.8 |
| 20260906002514 | 23 | 99 | 0.0 | 0.0 | 0.00 | 0.97 | 0.97 | 92 | 1012.9 |
| 20260906002020 | 23 | 99 | 0.0 | 0.0 | 0.00 | 0.97 | 0.97 | 92 | 1012.8 |
| 20260906001535 | 23 | 99 | 0.0 | 0.0 | 0.00 | 0.97 | 0.97 | 92 | 1012.7 |
| 20260906001017 | 23 | 99 | 0.0 | 0.0 | 0.00 | 0.97 | 0.97 | 92 | 1012.7 |
| 20260906000511 | 24 | 99 | 0.0 | 0.0 | 0.00 | 0.97 | 0.97 | 92 | 1012.7 |
| 20260906000022 | 24 | 99 | 0.0 | 0.0 | 0.00 | 0.97 | 0.97 | 92 | 1012.9 |
| 20260905235510 | 24 | 99 | 0.0 | 0.0 | 0.00 | 0.97 | 0.97 | 92 | 1012.8 |
| 20260905235013 | 24 | 99 | 0.0 | 0.0 | 0.00 | 0.97 | 0.97 | 92 | 1012.8 |
| 20260905234526 | 24 | 99 | 0.0 | 0.0 | 0.00 | 0.97 | 0.97 | 91 | 1012.8 |
| 20260905234014 | 24 | 99 | 0.0 | 0.0 | 0.00 | 0.97 | 0.97 | 91 | 1012.7 |
| 20260905233517 | 24 | 67 | 0.0 | 0.0 | 0.00 | 0.97 | 0.97 | 91 | 1012.8 |
| 20260905233034 | 25 | 27 | 0.0 | 0.0 | 0.00 | 0.97 | 0.97 | 92 | 1012.9 |
| 20260905232519 | 25 | 27 | 0.0 | 0.0 | 0.00 | 0.97 | 0.97 | 92 | 1012.7 |
| 20260905232017 | 25 | 27 | 0.0 | 0.0 | 0.00 | 0.97 | 0.97 | 93 | 1012.7 |
| 20260905231532 | 25 | 27 | 0.0 | 0.0 | 0.00 | 0.97 | 0.97 | 92 | 1012.5 |
| 20260905231016 | 25 | 27 | 0.0 | 1.6 | 0.00 | 0.97 | 0.97 | 92 | 1012.3 |
| 20260905230515 | 25 | 27 | 0.0 | 3.2 | 0.00 | 0.97 | 0.97 | 92 | 1012.3 |
| 20260905230036 | 25 | 27 | 0.0 | 3.2 | 0.00 | 0.97 | 0.97 | 92 | 1012.4 |
| 20260905225509 | 25 | 27 | 0.0 | 0.0 | 0.00 | 0.97 | 0.97 | 92 | 1012.4 |
| 20260905225012 | 25 | 27 | 0.0 | 0.0 | 0.00 | 0.97 | 0.97 | 92 | 1012.3 |
| 20260905224533 | 25 | 27 | 0.0 | 0.0 | 0.00 | 0.97 | 0.97 | 92 | 1012.3 |
| 20260905224012 | 25 | 27 | 0.0 | 0.0 | 0.00 | 0.97 | 0.97 | 92 | 1012.4 |
| 20260905223519 | 25 | 27 | 0.0 | 0.0 | 0.00 | 0.97 | 0.97 | 91 | 1012.4 |
| 20260905223033 | 25 | 27 | 0.0 | 0.0 | 0.00 | 0.97 | 0.97 | 92 | 1012.4 |
| 20260905222514 | 25 | 27 | 0.0 | 0.0 | 0.00 | 0.97 | 0.97 | 92 | 1012.7 |
| 20260905222018 | 25 | 27 | 0.0 | 0.0 | 0.00 | 0.97 | 0.97 | 91 | 1012.9 |
| 20260905221530 | 25 | 27 | 0.0 | 0.0 | 0.00 | 0.97 | 0.97 | 90 | 1012.9 |
| 20260905221022 | 25 | 27 | 0.0 | 0.0 | 0.00 | 0.97 | 0.97 | 90 | 1012.8 |
| 20260905220517 | 25 | 27 | 0.0 | 0.0 | 0.00 | 0.97 | 0.97 | 89 | 1012.7 |
| 20260905220105 | 25 | 27 | 0.0 | 0.0 | 0.00 | 0.97 | 0.97 | 90 | 1012.7 |
| 20260905215515 | 25 | 27 | 0.0 | 0.0 | 0.00 | 0.97 | 0.97 | 91 | 1012.7 |
| 20260905215023 | 25 | 27 | 0.0 | 0.0 | 0.00 | 0.97 | 0.97 | 92 | 1013.0 |
| 20260905214010 | 25 | 27 | 0.0 | 0.0 | 0.00 | 0.97 | 0.97 | 90 | 1013.4 |
| 20260905213516 | 25 | 27 | 0.0 | 3.2 | 0.00 | 0.97 | 0.97 | 91 | 1013.4 |
| 20260905213030 | 25 | 27 | 0.0 | 3.2 | 0.00 | 0.97 | 0.97 | 92 | 1013.3 |
| 20260905212512 | 25 | 27 | 0.0 | 3.2 | 0.00 | 0.97 | 0.97 | 92 | 1013.3 |
| 20260905212017 | 25 | 86 | 0.0 | 3.2 | 0.00 | 0.97 | 0.97 | 90 | 1013.2 |
| 20260905211541 | 25 | 162 | 0.0 | 3.2 | 0.00 | 0.97 | 0.97 | 92 | 1013.2 |
| 20260905211017 | 25 | 162 | 0.0 | 3.2 | 0.00 | 0.97 | 0.97 | 93 | 1013.2 |
| 20260905210515 | 24 | 162 | 0.0 | 0.0 | 0.00 | 0.97 | 0.97 | 93 | 1013.3 |
| 20260905210036 | 24 | 162 | 0.0 | 0.0 | 0.05 | 0.97 | 0.97 | 92 | 1013.3 |
| 20260905205520 | 24 | 162 | 0.0 | 3.2 | 0.56 | 0.97 | 0.97 | 91 | 1013.1 |
| 20260905205021 | 23 | 162 | 0.0 | 3.2 | 0.81 | 0.97 | 0.97 | 90 | 1013.0 |
| 20260905204535 | 23 | 162 | 0.0 | 3.2 | 0.97 | 0.97 | 0.97 | 92 | 1013.2 |
| 20260905203511 | 23 | 338 | 0.0 | 3.2 | 0.97 | 0.97 | 0.97 | 93 | 1013.4 |
| 20260905203031 | 23 | 338 | 0.0 | 3.2 | 0.97 | 0.97 | 0.97 | 90 | 1013.5 |
| 20260905202513 | 23 | 338 | 0.0 | 3.2 | 0.97 | 0.97 | 0.97 | 90 | 1013.6 |
| 20260905202013 | 23 | 306 | 0.0 | 6.4 | 0.97 | 0.97 | 0.97 | 89 | 1013.9 |
| 20260905201534 | 23 | 167 | 1.6 | 6.4 | 0.97 | 0.97 | 0.97 | 88 | 1013.6 |
| 20260905201010 | 23 | 284 | 0.0 | 11.3 | 0.97 | 0.97 | 0.97 | 86 | 1013.4 |
| 20260905200520 | 24 | 359 | 1.6 | 11.3 | 0.97 | 0.97 | 0.97 | 84 | 1013.6 |
| 20260905200034 | 26 | 142 | 3.2 | 11.3 | 0.91 | 0.91 | 0.91 | 76 | 1014.3 |
| 20260905194541 | 34 | 257 | 4.8 | 9.7 | 0.00 | 0.00 | 0.00 | 53 | 1014.2 |
| 20260905194022 | 35 | 352 | 3.2 | 6.4 | 0.00 | 0.00 | 0.00 | 48 | 1013.6 |
| 20260905193517 | 35 | 357 | 0.0 | 3.2 | 0.00 | 0.00 | 0.00 | 48 | 1013.1 |
| 20260905192519 | 35 | 74 | 0.0 | 3.2 | 0.00 | 0.00 | 0.00 | 48 | 1012.9 |
| 20260905192018 | 35 | 316 | 0.0 | 4.8 | 0.00 | 0.00 | 0.00 | 49 | 1013.2 |
| 20260905191540 | 35 | 333 | 1.6 | 4.8 | 0.00 | 0.00 | 0.00 | 50 | 1013.1 |
| 20260905191004 | 35 | 27 | 1.6 | 3.2 | 0.00 | 0.00 | 0.00 | 48 | 1012.9 |
| 20260905190504 | 35 | 7 | 0.0 | 3.2 | 0.00 | 0.00 | 0.00 | 51 | 1013.1 |
| 20260905190049 | 34 | 229 | 0.0 | 4.8 | 0.00 | 0.00 | 0.00 | 50 | 1013.3 |
| 20260905185508 | 34 | 359 | 1.6 | 4.8 | 0.00 | 0.00 | 0.00 | 51 | 1013.5 |
| 20260905185035 | 33 | 347 | 1.6 | 4.8 | 0.00 | 0.00 | 0.00 | 54 | 1013.6 |
| 20260905184548 | 33 | 323 | 0.0 | 3.2 | 0.00 | 0.00 | 0.00 | 52 | 1013.7 |
| 20260905184007 | 33 | 83 | 0.0 | 4.8 | 0.00 | 0.00 | 0.00 | 57 | 1013.5 |
| 20260905183510 | 33 | 341 | 0.0 | 4.8 | 0.00 | 0.00 | 0.00 | 56 | 1013.3 |
| 20260905183023 | 33 | 281 | 0.0 | 3.2 | 0.00 | 0.00 | 0.00 | 55 | 1013.2 |
| 20260905182510 | 33 | 325 | 1.6 | 6.4 | 0.00 | 0.00 | 0.00 | 55 | 1013.4 |
| 20260905182014 | 33 | 184 | 0.0 | 6.4 | 0.00 | 0.00 | 0.00 | 53 | 1013.4 |
| 20260905181547 | 34 | 293 | 0.0 | 4.8 | 0.00 | 0.00 | 0.00 | 53 | 1013.6 |
| 20260905181014 | 34 | 217 | 1.6 | 8.0 | 0.00 | 0.00 | 0.00 | 52 | 1013.7 |
| 20260905180520 | 34 | 120 | 3.2 | 8.0 | 0.00 | 0.00 | 0.00 | 54 | 1013.7 |
| 20260905180031 | 34 | 150 | 1.6 | 6.4 | 0.00 | 0.00 | 0.00 | 55 | 1013.8 |
| 20260905175504 | 34 | 121 | 3.2 | 6.4 | 0.00 | 0.00 | 0.00 | 55 | 1014.0 |
| 20260905175024 | 34 | 184 | 1.6 | 3.2 | 0.00 | 0.00 | 0.00 | 55 | 1014.1 |
| 20260905174526 | 34 | 98 | 0.0 | 4.8 | 0.00 | 0.00 | 0.00 | 54 | 1014.2 |
| 20260905173507 | 33 | 1 | 0.0 | 4.8 | 0.00 | 0.00 | 0.00 | 55 | 1014.1 |
| 20260905173019 | 33 | 323 | 1.6 | 6.4 | 0.00 | 0.00 | 0.00 | 57 | 1014.2 |
| 20260905172510 | 33 | 169 | 1.6 | 9.7 | 0.00 | 0.00 | 0.00 | 60 | 1014.1 |
| 20260905172011 | 33 | 168 | 4.8 | 9.7 | 0.00 | 0.00 | 0.00 | 58 | 1014.2 |
| 20260905165515 | 32 | 91 | 1.6 | 3.2 | 0.00 | 0.00 | 0.00 | 60 | 1014.4 |
| 20260905165014 | 32 | 29 | 1.6 | 3.2 | 0.00 | 0.00 | 0.00 | 62 | 1014.5 |
| 20260905164509 | 32 | 359 | 0.0 | 4.8 | 0.00 | 0.00 | 0.00 | 64 | 1014.6 |
| 20260905164006 | 32 | 94 | 3.2 | 4.8 | 0.00 | 0.00 | 0.00 | 63 | 1014.7 |
| 20260905163505 | 32 | 119 | 1.6 | 3.2 | 0.00 | 0.00 | 0.00 | 62 | 1014.8 |
| 20260905162510 | 32 | 60 | 1.6 | 4.8 | 0.00 | 0.00 | 0.00 | 64 | 1014.9 |
| 20260905162010 | 31 | 101 | 1.6 | 4.8 | 0.00 | 0.00 | 0.00 | 64 | 1015.0 |
| 20260905161530 | 31 | 118 | 1.6 | 4.8 | 0.00 | 0.00 | 0.00 | 64 | 1015.0 |
| 20260905161010 | 31 | 80 | 1.6 | 3.2 | 0.00 | 0.00 | 0.00 | 65 | 1015.0 |
| 20260905160513 | 31 | 306 | 1.6 | 3.2 | 0.00 | 0.00 | 0.00 | 65 | 1015.0 |
| 20260905160032 | 31 | 13 | 0.0 | 6.4 | 0.00 | 0.00 | 0.00 | 67 | 1015.1 |
| 20260905155519 | 31 | 158 | 1.6 | 6.4 | 0.00 | 0.00 | 0.00 | 67 | 1015.2 |
| 20260905155015 | 31 | 170 | 0.0 | 4.8 | 0.00 | 0.00 | 0.00 | 68 | 1015.1 |
| 20260905154535 | 31 | 112 | 0.0 | 4.8 | 0.00 | 0.00 | 0.00 | 67 | 1015.1 |
| 20260905154015 | 31 | 101 | 0.0 | 4.8 | 0.00 | 0.00 | 0.00 | 68 | 1015.1 |
| 20260905153506 | 30 | 167 | 3.2 | 4.8 | 0.00 | 0.00 | 0.00 | 69 | 1015.1 |
| 20260905153016 | 30 | 152 | 1.6 | 4.8 | 0.00 | 0.00 | 0.00 | 71 | 1015.2 |
| 20260905152508 | 30 | 232 | 0.0 | 4.8 | 0.00 | 0.00 | 0.00 | 69 | 1015.3 |
| 20260905152008 | 30 | 153 | 1.6 | 3.2 | 0.00 | 0.00 | 0.00 | 70 | 1015.3 |
| 20260905151534 | 30 | 216 | 0.0 | 3.2 | 0.00 | 0.00 | 0.00 | 70 | 1015.3 |
| 20260905151018 | 30 | 229 | 1.6 | 3.2 | 0.00 | 0.00 | 0.00 | 70 | 1015.5 |
| 20260905150513 | 30 | 210 | 1.6 | 3.2 | 0.00 | 0.00 | 0.00 | 70 | 1015.4 |
| 20260905145513 | 29 | 345 | 0.0 | 3.2 | 0.00 | 0.00 | 0.00 | 71 | 1015.5 |
| 20260905145014 | 29 | 61 | 0.0 | 3.2 | 0.00 | 0.00 | 0.00 | 71 | 1015.6 |
| 20260905144534 | 29 | 36 | 0.0 | 3.2 | 0.00 | 0.00 | 0.00 | 73 | 1015.5 |
| 20260905144016 | 29 | 37 | 0.0 | 3.2 | 0.00 | 0.00 | 0.00 | 72 | 1015.5 |
| 20260905143517 | 28 | 31 | 0.0 | 3.2 | 0.00 | 0.00 | 0.00 | 73 | 1015.5 |
| 20260905143008 | 28 | 40 | 0.0 | 3.2 | 0.00 | 0.00 | 0.00 | 73 | 1015.6 |
| 20260905142503 | 28 | 142 | 0.0 | 0.0 | 0.00 | 0.00 | 0.00 | 76 | 1015.5 |
| 20260905142009 | 28 | 165 | 0.0 | 3.2 | 0.00 | 0.00 | 0.00 | 76 | 1015.5 |
| 20260905141509 | 28 | 165 | 0.0 | 3.2 | 0.00 | 0.00 | 0.00 | 76 | 1015.8 |
| 20260905141006 | 27 | 165 | 0.0 | 3.2 | 0.00 | 0.00 | 0.00 | 78 | 1015.7 |
| 20260905140504 | 27 | 154 | 1.6 | 4.8 | 0.00 | 0.00 | 0.00 | 78 | 1015.7 |
| 20260905140008 | 27 | 161 | 3.2 | 4.8 | 0.00 | 0.00 | 0.00 | 77 | 1015.8 |
| 20260905135502 | 27 | 203 | 1.6 | 4.8 | 0.00 | 0.00 | 0.00 | 80 | 1016.0 |
| 20260905135010 | 26 | 163 | 3.2 | 4.8 | 0.00 | 0.00 | 0.00 | 80 | 1016.0 |
| 20260905134527 | 26 | 167 | 0.0 | 3.2 | 0.00 | 0.00 | 0.00 | 82 | 1016.0 |
| 20260905134005 | 26 | 167 | 1.6 | 3.2 | 0.00 | 0.00 | 0.00 | 82 | 1016.0 |
| 20260905133503 | 26 | 182 | 0.0 | 3.2 | 0.00 | 0.00 | 0.00 | 84 | 1016.1 |
| 20260905133012 | 26 | 169 | 0.0 | 3.2 | 0.00 | 0.00 | 0.00 | 84 | 1016.2 |
| 20260905132504 | 25 | 172 | 0.0 | 3.2 | 0.00 | 0.00 | 0.00 | 84 | 1016.0 |
| 20260905132005 | 25 | 166 | 3.2 | 3.2 | 0.00 | 0.00 | 0.00 | 85 | 1016.1 |
| 20260905131513 | 25 | 205 | 0.0 | 0.0 | 0.00 | 0.00 | 0.00 | 88 | 1016.3 |
| 20260905131003 | 24 | 253 | 0.0 | 0.0 | 0.00 | 0.00 | 0.00 | 91 | 1016.3 |
| 20260905130506 | 24 | 260 | 0.0 | 0.0 | 0.00 | 0.00 | 0.00 | 92 | 1016.3 |
| 20260905130009 | 24 | 260 | 0.0 | 0.0 | 0.00 | 0.00 | 0.00 | 93 | 1016.1 |
| 20260905125504 | 23 | 260 | 0.0 | 3.2 | 0.00 | 0.00 | 0.00 | 93 | 1016.1 |
| 20260905125006 | 23 | 260 | 0.0 | 3.2 | 0.00 | 0.00 | 0.00 | 94 | 1016.1 |
| 20260905124521 | 23 | 266 | 0.0 | 0.0 | 0.00 | 0.00 | 0.00 | 94 | 1016.0 |
| 20260905124003 | 23 | 266 | 0.0 | 0.0 | 0.00 | 0.00 | 0.00 | 94 | 1015.9 |
| 20260905123503 | 23 | 266 | 0.0 | 0.0 | 0.00 | 0.00 | 0.00 | 94 | 1016.0 |
| 20260905123009 | 23 | 266 | 0.0 | 0.0 | 0.00 | 0.00 | 0.00 | 94 | 1016.1 |
| 20260905122503 | 22 | 266 | 0.0 | 0.0 | 0.00 | 0.00 | 0.00 | 94 | 1016.0 |
| 20260905122008 | 22 | 266 | 0.0 | 0.0 | 0.00 | 0.00 | 0.00 | 94 | 1015.8 |
| 20260905121510 | 22 | 266 | 0.0 | 0.0 | 0.00 | 0.00 | 0.00 | 94 | 1015.8 |
| 20260905121004 | 22 | 266 | 0.0 | 0.0 | 0.00 | 0.00 | 0.00 | 94 | 1015.8 |
| 20260905120504 | 22 | 266 | 0.0 | 0.0 | 0.00 | 0.00 | 0.00 | 93 | 1015.9 |
| 20260905120018 | 22 | 266 | 0.0 | 0.0 | 0.00 | 0.00 | 0.00 | 93 | 1016.0 |
| 20260905115504 | 22 | 266 | 0.0 | 0.0 | 0.00 | 0.00 | 0.00 | 93 | 1015.9 |
| 20260905115004 | 22 | 266 | 0.0 | 0.0 | 0.00 | 0.00 | 0.00 | 93 | 1015.9 |